Back to catalog

ONEWEB-0129

AliveCommunicationsPO
NORAD 47275·PAYLOAD·🇬🇧 United Kingdom

Launched Dec 18, 2020 from Vostochny Cosmodrome

Loading…

Next Passes (next 24 hours)

TLE

FreshSource: CelesTrak SupGP

Epoch: Sep 14, 2026, 14:40 UTC

1 47275C 20100T   26257.61128889  .00004099  00000+0  11408-1 0  2576
2 47275  87.8989 332.9068 0000795  96.9638   8.5429 13.12438645    15

Track ONEWEB-0129 in real time with AllMySat

Download on the App Store